DW6276 Weather Reports


Display with metric or nautical units.
time (UTC)temp
F
wind
direction
speed
MPH
gust
MPH
rain 1hr
in
rain 24hr
in
rain mn
in
humidity
%
barometer
mb
20260508100017 37 0.0 2.0 0.00 0.00 0.00 60 1008.6
20260508095016 38 0.0 1.0 0.00 0.00 0.00 60 1008.7
20260508094016 38 0.0 1.0 0.00 0.00 0.00 59 1008.8
20260508093016 38 0.0 0.0 0.00 0.00 0.00 59 1008.8
20260508092036 38 0.0 0.0 0.00 0.00 0.00 57 1008.9
20260508091036 39 0.0 1.0 0.00 0.00 0.00 56 1008.8
20260508090016 39 203 1.0 1.0 0.00 0.00 0.00 55 1008.9
20260508085016 40 203 1.0 2.0 0.00 0.00 0.00 54 1008.9
20260508084016 41 0.0 1.0 0.00 0.00 0.00 53 1008.9
20260508083016 42 0.0 2.0 0.00 0.00 0.00 51 1009.1
20260508082036 42 203 2.0 3.0 0.00 0.00 0.00 50 1009.1
20260508081016 43 203 5.0 7.0 0.00 0.00 0.00 49 1009.1
20260508080016 42 203 4.0 5.0 0.00 0.00 0.00 51 1009.2
20260508075016 41 203 3.0 4.0 0.00 0.00 0.00 52 1009.1
20260508074016 42 203 4.0 5.0 0.00 0.00 0.00 52 1009.2
20260508073016 42 203 4.0 5.0 0.00 0.00 0.00 51 1009.3
20260508072036 42 203 3.0 4.0 0.00 0.00 0.00 51 1009.4
20260508071016 41 225 3.0 3.0 0.00 0.00 0.00 51 1009.5
20260508070016 41 225 3.0 3.0 0.00 0.00 0.00 52 1009.5
20260508065036 39 225 2.0 3.0 0.00 0.00 0.00 56 1009.4
20260508064016 39 0.0 1.0 0.00 0.00 0.00 56 1009.5
20260508063036 40 0.0 2.0 0.00 0.00 0.00 54 1009.6
20260508062016 40 180 2.0 4.0 0.00 0.00 0.00 54 1009.7
20260508061016 41 0.0 2.0 0.00 0.00 0.00 53 1009.8
20260508060016 41 180 1.0 2.0 0.00 0.00 0.00 52 1009.8
20260508055016 40 0.0 0.0 0.00 0.00 0.00 53 1009.8
20260508054016 41 203 1.0 3.0 0.00 0.00 0.00 51 1009.9
20260508053016 39 203 1.0 2.0 0.00 0.00 0.00 53 1009.8
20260508052016 39 0.0 0.0 0.00 0.00 0.00 53 1009.8
20260508051016 39 0.0 2.0 0.00 0.00 0.00 53 1009.9
20260508050016 39 0.0 1.0 0.00 0.00 0.00 52 1010.0
20260508045017 39 0.0 1.0 0.00 0.00 0.00 55 1010.0
20260508044016 39 0.0 0.0 0.00 0.00 0.00 54 1010.1
20260508043017 40 0.0 0.0 0.00 0.00 0.00 53 1010.2
20260508042016 40 0.0 2.0 0.00 0.00 0.00 52 1010.2
20260508041016 40 0.0 1.0 0.00 0.00 0.00 52 1010.2
20260508040037 40 0.0 0.0 0.00 0.00 0.00 51 1010.2
20260508035016 41 0.0 0.0 0.00 0.00 0.00 51 1010.3
20260508034036 41 203 3.0 5.0 0.00 0.00 0.00 51 1010.3
20260508033016 42 0.0 0.0 0.00 0.00 0.00 50 1010.3
20260508032016 43 0.0 2.0 0.00 0.00 0.00 45 1010.3
20260508031016 44 203 2.0 2.0 0.00 0.00 0.00 44 1010.3
20260508030016 45 0.0 1.0 0.00 0.00 0.00 45 1010.4
20260508025036 45 113 1.0 1.0 0.00 0.00 0.00 44 1010.4
20260508024016 46 0.0 2.0 0.00 0.00 0.00 42 1010.4
20260508023016 47 0.0 2.0 0.00 0.00 0.00 42 1010.4
20260508022036 49 0.0 2.0 0.00 0.00 0.00 39 1010.3
20260508021056 50 0.0 0.0 0.00 0.00 0.00 37 1010.1
20260508020016 52 0.0 0.0 0.00 0.00 0.00 33 1010.1
20260508015056 53 0.0 2.0 0.00 0.00 0.00 32 1010.0
20260508014016 54 23 1.0 1.0 0.00 0.00 0.00 31 1009.9
20260508013016 54 0 1.0 2.0 0.00 0.00 0.00 29 1009.8
20260508012016 55 0 2.0 3.0 0.00 0.00 0.00 28 1009.6
20260508011036 57 338 4.0 7.0 0.00 0.00 0.00 26 1009.6
20260508010036 58 338 4.0 6.0 0.00 0.00 0.00 26 1009.7
20260508005016 59 338 5.0 8.0 0.00 0.00 0.00 25 1009.4
20260508004016 59 338 5.0 10.0 0.00 0.00 0.00 24 1009.4
20260508003016 60 0 7.0 11.0 0.00 0.00 0.00 24 1009.4
20260508002016 60 315 7.0 11.0 0.00 0.00 0.00 23 1009.2
20260508001016 61 315 6.0 10.0 0.00 0.00 0.00 23 1009.2
20260508000016 61 315 6.0 9.0 0.00 0.00 0.00 23 1009.4
20260507235016 61 315 8.0 12.0 0.00 0.00 0.00 22 1009.4
20260507234016 61 315 8.0 12.0 0.00 0.00 0.00 23 1009.3
20260507233016 61 0 7.0 13.0 0.00 0.00 0.00 22 1009.4
20260507232016 61 338 7.0 11.0 0.00 0.00 0.00 22 1009.4
20260507231016 61 0 10.0 14.0 0.00 0.00 0.00 21 1009.5
20260507230016 61 0 4.0 6.0 0.00 0.00 0.00 22 1009.6
20260507225016 61 0 7.0 11.0 0.00 0.00 0.00 22 1009.7
20260507224016 61 0 7.0 12.0 0.00 0.00 0.00 21 1009.7
20260507223016 61 0 11.0 17.0 0.00 0.00 0.00 21 1009.7
20260507222016 61 0 9.0 15.0 0.00 0.00 0.00 21 1009.8
20260507221016 61 0 7.0 11.0 0.00 0.00 0.00 21 1009.8
20260507220016 60 0 9.0 15.0 0.00 0.00 0.00 22 1009.9
20260507215055 61 0 8.0 15.0 0.00 0.00 0.00 22 1009.9
20260507214015 60 338 8.0 18.0 0.00 0.00 0.00 23 1010.0
20260507213015 60 338 9.0 16.0 0.00 0.00 0.00 22 1010.0
20260507212016 60 0 7.0 13.0 0.00 0.00 0.00 22 1010.2
20260507211016 60 0 9.0 14.0 0.00 0.00 0.00 22 1010.2
20260507210016 60 338 4.0 10.0 0.00 0.00 0.00 24 1010.2
20260507205015 59 338 7.0 15.0 0.00 0.00 0.00 23 1010.3
20260507204015 59 0 5.0 9.0 0.00 0.00 0.00 23 1010.5
20260507203036 59 338 6.0 12.0 0.00 0.00 0.00 22 1010.7
20260507202016 59 338 9.0 18.0 0.00 0.00 0.00 23 1010.7
20260507201015 59 0 6.0 10.0 0.00 0.00 0.00 25 1010.9
20260507200015 58 338 5.0 12.0 0.00 0.00 0.00 25 1011.0
20260507195035 58 0 9.0 13.0 0.00 0.00 0.00 24 1011.1
20260507194015 58 338 8.0 17.0 0.00 0.00 0.00 24 1011.2
20260507193035 57 248 5.0 11.0 0.00 0.00 0.00 26 1011.3
20260507192015 57 315 10.0 14.0 0.00 0.00 0.00 26 1011.2
20260507191015 56 0 4.0 11.0 0.00 0.00 0.00 26 1011.4
20260507190015 57 338 10.0 17.0 0.00 0.00 0.00 24 1011.5
20260507185015 57 0 7.0 11.0 0.00 0.00 0.00 25 1011.5
20260507184015 56 45 3.0 7.0 0.00 0.00 0.00 25 1011.5
20260507183035 56 338 11.0 17.0 0.00 0.00 0.00 27 1011.6
20260507182035 56 0 7.0 13.0 0.00 0.00 0.00 25 1011.9
20260507181015 55 293 4.0 9.0 0.00 0.00 0.00 27 1011.9
20260507180015 54 45 5.0 9.0 0.00 0.00 0.00 27 1012.0
20260507175015 55 23 8.0 14.0 0.00 0.00 0.00 27 1012.0
20260507174017 54 293 5.0 11.0 0.00 0.00 0.00 29 1012.1
20260507173017 54 315 4.0 10.0 0.00 0.00 0.00 30 1012.1
20260507172017 54 45 5.0 11.0 0.00 0.00 0.00 29 1012.3
20260507171017 54 0 4.0 8.0 0.00 0.00 0.00 30 1012.4
20260507170017 53 23 6.0 9.0 0.00 0.00 0.00 29 1012.5
20260507165017 53 0 6.0 11.0 0.00 0.00 0.00 31 1012.5
20260507164017 53 45 6.0 14.0 0.00 0.00 0.00 31 1012.7
20260507163017 53 23 4.0 8.0 0.00 0.00 0.00 31 1012.7
20260507162037 53 45 9.0 12.0 0.00 0.00 0.00 30 1012.8
20260507161017 52 293 4.0 7.0 0.00 0.00 0.00 31 1012.7
20260507160037 51 45 3.0 7.0 0.00 0.00 0.00 33 1012.8
20260507155017 51 0 5.0 13.0 0.00 0.00 0.00 34 1012.9
20260507154017 51 45 6.0 12.0 0.00 0.00 0.00 33 1012.9
20260507153017 50 45 2.0 5.0 0.00 0.00 0.00 34 1012.9
20260507152017 50 23 5.0 10.0 0.00 0.00 0.00 33 1013.1
20260507151017 50 23 3.0 6.0 0.00 0.00 0.00 35 1013.0
20260507150017 49 338 5.0 8.0 0.00 0.00 0.00 36 1012.9
20260507145017 49 45 4.0 8.0 0.00 0.00 0.00 38 1013.1
20260507144017 49 45 5.0 9.0 0.00 0.00 0.00 34 1013.1
20260507143017 49 45 3.0 8.0 0.00 0.00 0.00 36 1013.2
20260507142017 48 68 2.0 5.0 0.00 0.00 0.00 41 1013.3
20260507141017 47 270 2.0 5.0 0.00 0.00 0.00 42 1013.3
20260507140017 47 23 2.0 4.0 0.00 0.00 0.00 44 1013.4
20260507135017 47 0 2.0 4.0 0.00 0.00 0.00 48 1013.5
20260507134017 46 315 1.0 2.0 0.00 0.00 0.00 51 1013.5
20260507133037 46 338 1.0 2.0 0.00 0.00 0.00 54 1013.5
20260507132016 45 338 1.0 2.0 0.00 0.00 0.00 57 1013.6
20260507131057 43 0.0 2.0 0.00 0.00 0.00 62 1013.6
20260507130017 42 338 1.0 2.0 0.00 0.00 0.00 63 1013.5
20260507125017 41 0 1.0 2.0 0.00 0.00 0.00 66 1013.6
20260507124017 40 338 1.0 1.0 0.00 0.00 0.00 68 1013.5
20260507123016 38 338 1.0 1.0 0.00 0.00 0.00 72 1013.6
20260507122016 37 0.0 0.0 0.00 0.00 0.00 76 1013.6
20260507121016 35 0.0 0.0 0.00 0.00 0.00 78 1013.6
20260507120017 33 0.0 0.0 0.00 0.00 0.00 81 1013.5
20260507115037 32 0.0 0.0 0.00 0.00 0.00 82 1013.4
20260507114016 31 0.0 2.0 0.00 0.00 0.00 82 1013.4
20260507113036 30 0.0 2.0 0.00 0.00 0.00 84 1013.2
20260507112016 30 0.0 0.0 0.00 0.00 0.00 83 1013.2
20260507111017 30 0.0 2.0 0.00 0.00 0.00 84 1013.3
20260507110016 30 0.0 2.0 0.00 0.00 0.00 83 1013.4
20260507105016 30 338 1.0 2.0 0.00 0.00 0.00 83 1013.4
20260507104016 30 0.0 2.0 0.00 0.00 0.00 83 1013.4
20260507103016 30 0.0 2.0 0.00 0.00 0.00 83 1013.5
20260507102016 30 23 1.0 4.0 0.00 0.00 0.00 83 1013.5
20260507101016 29 23 1.0 1.0 0.00 0.00 0.00 84 1013.5